sat.trackr.live / text

‹ back to catalog

STARLINK-36299

NORAD 68534 · 2026-068AC

PAYLOAD ACTIVE UNKNOWN

§ Identity

Operator
Country
US
Launch date
2026-03-30
Launch site
AFETR
Launch vehicle
Mass (kg)
RCS (m²)

Purposes: comms

External: N2YO · Heavens-Above · Gunter

§ Orbital elements

Epoch: 2026-05-25T03:08:36.638304Z

Period
93.85 min
Inclination
53.1585°
Eccentricity
0.0001489
Mean motion
15.34408265 rev/d
Perigee alt
461.7 km
Apogee alt
463.7 km
Semi-major
6,840.8 km
B*
6.2071e-4
RAAN
133.1225°
Arg perigee
115.5528°
Mean anomaly
244.5629°
Rev number
866

§ Raw data

STARLINK-362991 68534U 26068AC  26145.13097961  .00020659  00000+0  62071-3 0  99922 68534  53.1585 133.1225 0001489 115.5528 244.5629 15.34408265  8661

JSON: /api/v1/satellites/68534 · /tle

For live sub-satellite position, see the globe view (requires WebGL).

§ Visibility from observer

Set your observer location to see the next 7 days of passes ≥ 10°. The values pass through the URL so the page stays shareable.

No JS? Fill the form by hand. The geolocation button needs JavaScript.